Regional Weather Roundup
Issued by NWS

Home | Current Version | Previous Version | Graphics & Text | Print | Product List | Glossary On
Versions: 1 2 3 4 5 6 7 8 9 10 11 12 13 14 15 16 17 18 19 20 21 22 23 24 25 26 27 28 29 30 31 32 33 34 35 36 37 38 39 40 41 42 43 44 45 46 47 48 49 50
753
ASUS43 KLMK 302202
RWRKY
KENTUCKY REGIONAL WEATHER ROUNDUP
NATIONAL WEATHER SERVICE LOUISVILLE KY
600 PM EDT SAT JUL 30 2016

NOTE "FAIR" INDICATES FEW OR NO CLOUDS BELOW 12,000 FEET
WITH NO SIGNIFICANT WEATHER AND/OR OBSTRUCTIONS TO VISIBILITY.

KYZ001>023-026-027-061>063-070>075-302300-
WESTERN AND SOUTH CENTRAL KENTUCKY

CITY           SKY/WX    TMP DP  RH WIND       PRES   REMARKS
PADUCAH        PTSUNNY   85  70  60 W6        29.96S
HENDERSON      SUNNY     86  68  54 W8        29.94S
OWENSBORO      MOSUNNY   86  72  62 W9        29.95S HX  92
HOPKINSVILLE   MOSUNNY   84  71  65 W7        29.96S
BOWLING GREEN  MOSUNNY   88  71  57 SW8       29.96S HX  94
GLASGOW        NOT AVBL
$$

KYZ024-025-028>034-038-045-046-053-302300-
NORTH CENTRAL KENTUCKY

CITY           SKY/WX    TMP DP  RH WIND       PRES   REMARKS
LOUISVILLE/SDF PTSUNNY   81  68  64 W6        29.95S
LOUISVILLE/LOU MOSUNNY   80  69  69 CALM      29.95F
FORT KNOX      MOSUNNY   77  71  81 NW7       29.95S
$$

KYZ035>037-039>044-047>052-055>060-089>105-302300-
NORTHEAST KENTUCKY

CITY           SKY/WX    TMP DP  RH WIND       PRES   REMARKS
LEXINGTON      LGT RAIN  75  67  76 NW12      29.99R
COVINGTON      CLOUDY    82  69  64 W7        29.95S
FRANKFORT      CLOUDY    74  69  85 NW5       29.97F
$$

KYZ054-064>069-076>088-106>120-302300-
SOUTHEAST KENTUCKY

CITY           SKY/WX    TMP DP  RH WIND       PRES   REMARKS
JACKSON        MOSUNNY   82  70  66 CALM      29.99S
LONDON         SUNNY     86  67  52 W10       29.99S
SOMERSET       PTSUNNY   82  66  57 W8        30.00S
MIDDLESBORO    MOSUNNY   86  72  61 SW5       30.00R HX  92
MONTICELLO     PTCLDY   N/A N/A N/A W14       30.01S
$$





USA.gov is the U.S. government's official web portal to all federal, state and local government web resources and services.